[[{"header":{"parameterUnit":"m.s-1","parameterCategory":1,"la1":30.2991,"la2":30.254,"lo1":-89.0895,"lo2":-89.0444,"dy":0.0017,"dx":0.0017,"nx":28,"ny":28,"refTime":"2025-03-23T09:00:00:Z","depth":0,"parameterNumber":2,"parameterNumberName":"U-component_of_WINDS"},"data":[0,0,0,0,0,0,0,0,0,0,0,0,0,0,0,0,0,0,0,0,0,0,0,0,0,0,0,0,0,0,0,0,0,0,0,0,0,0,0,0,0,0,0,0,0,0,0,0,0,0,0,0,0,0,0,0,0,0,-1.2107,-1.2107,0,-1.2118,-1.2118,-1.2118,-1.2134,-1.2135,-1.2135,-1.2135,-1.2145,-1.2145,-1.2145,0,0,0,0,0,0,0,0,0,0,0,0,0,-1.2101,-1.2101,-1.2107,-1.2107,-1.2107,-1.2117,-1.2118,-1.2118,-1.2134,-1.2135,-1.2135,-1.2135,-1.2145,-1.2145,-1.2145,0,0,0,0,0,0,0,0,0,0,0,0,0,-1.2107,-1.2101,-1.2107,-1.2117,-1.2118,-1.2117,-1.2118,-1.2118,-1.2134,-1.2135,-1.2135,-1.2136,-1.2145,-1.2145,-1.2145,-1.2136,0,0,-1.2145,-1.2145,0,0,0,0,0,0,0,0,-1.2107,-1.2107,-1.2115,-1.2116,-1.2117,-1.2125,-1.2119,-1.2124,-1.2134,-1.2128,-1.2135,-1.2136,-1.2138,-1.2139,-1.214,-1.2136,-1.2136,-1.2145,-1.2145,-1.2145,-1.2145,0,0,0,0,0,0,0,-1.2106,-1.2107,-1.2111,-1.2116,-1.2117,-1.2121,-1.2122,-1.212,-1.213,-1.2129,-1.213,-1.2131,-1.2139,-1.214,-1.214,-1.2137,-1.2145,-1.2145,-1.2145,-1.2145,-1.2125,-1.2125,0,0,0,0,0,0,-1.2105,-1.2106,-1.2111,-1.2112,-1.2113,-1.212,-1.2122,-1.2122,-1.213,-1.2132,-1.2131,-1.2132,-1.2139,-1.214,-1.214,-1.2129,-1.2145,-1.2145,-1.2145,-1.2126,-1.2125,-1.2125,0,0,0,0,0,0,-1.2104,-1.2105,-1.2111,-1.2109,-1.211,-1.212,-1.212,-1.2122,-1.2123,-1.2132,-1.2134,-1.2129,-1.214,-1.214,-1.2137,-1.213,-1.2145,-1.2145,-1.2126,-1.2126,-1.2125,-1.2107,0,0,0,0,0,0,-1.2104,-1.2105,-1.2101,-1.2109,-1.211,-1.2107,-1.212,-1.2122,-1.2123,-1.2125,-1.2131,-1.2133,-1.214,-1.2137,-1.2137,-1.213,-1.2145,-1.2127,-1.2126,-1.2125,-1.2108,-1.2105,-1.2103,0,0,0,0,0,-1.2104,-1.2096,-1.2101,-1.2101,-1.2106,-1.2106,-1.2107,-1.2116,-1.2122,-1.2119,-1.2125,-1.2133,-1.2131,-1.2136,-1.2136,-1.2129,-1.2128,-1.2126,-1.2125,-1.2109,-1.2106,-1.2103,0,0,0,0,0,0,-1.2086,-1.2097,-1.2103,-1.2097,-1.2101,-1.2109,-1.2105,-1.2112,-1.2114,-1.2115,-1.2126,-1.2127,-1.2122,-1.2126,-1.2131,-1.212,-1.213,-1.2129,-1.2118,-1.2115,-1.2113,-1.2111,-1.2145,0,0,0,0,0,-1.2082,-1.2081,-1.209,-1.2084,-1.2086,-1.2095,-1.2095,-1.2102,-1.2106,-1.2107,-1.2113,-1.2116,-1.2116,-1.2116,-1.2117,-1.2109,-1.211,-1.2105,-1.2102,-1.21,-1.2099,-1.2094,-1.2091,-1.2121,-1.2121,-1.2121,0,0,-1.2072,-1.2078,-1.2076,-1.2081,-1.2084,-1.2083,-1.2096,-1.2094,-1.2093,-1.2107,-1.2103,-1.2108,-1.2112,-1.2106,-1.2104,-1.2109,-1.2091,-1.2099,-1.2097,-1.2097,-1.2093,-1.209,-1.2087,-1.212,-1.212,-1.2121,0,0,-1.2053,-1.2058,-1.2053,-1.2057,-1.2062,-1.2068,-1.2067,-1.2075,-1.2078,-1.2075,-1.2085,-1.2085,-1.2085,-1.2087,-1.2089,-1.2072,-1.2079,-1.2072,-1.2059,-1.2055,-1.2052,-1.205,-1.2043,-1.204,-1.2071,-1.2071,-1.2071,0,-1.204,-1.2039,-1.205,-1.2047,-1.2048,-1.2061,-1.2056,-1.2059,-1.2064,-1.2065,-1.2071,-1.2071,-1.2075,-1.207,-1.2066,-1.2067,-1.2065,-1.207,-1.2052,-1.205,-1.2048,-1.2041,-1.2039,-1.207,-1.207,-1.207,-1.207,0,-1.2022,-1.2021,-1.2017,-1.2022,-1.2023,-1.2019,-1.2028,-1.2028,-1.2035,-1.2041,-1.2037,-1.2043,-1.2044,-1.2044,-1.2051,-1.2039,-1.2042,-1.205,-1.206,-1.2044,-1.2038,-1.2035,-1.2068,-1.2069,-1.2069,-1.2069,0,0,-1.1991,-1.2003,-1.2001,-1.2003,-1.2011,-1.201,-1.2007,-1.2009,-1.2008,-1.2011,-1.2008,-1.2009,-1.2016,-1.2017,-1.2024,-1.2021,-1.2006,-1.2029,-1.2029,-1.2023,-1.1992,-1.1985,-1.1982,-1.2011,-1.2011,-1.2011,-1.1992,0,-1.1973,-1.1968,-1.1978,-1.1971,-1.1969,-1.1982,-1.198,-1.1984,-1.1989,-1.1989,-1.1995,-1.1994,-1.2004,-1.2005,-1.2002,-1.2008,-1.1999,-1.201,-1.2008,-1.2007,-1.2004,-1.1979,-1.1972,-1.1953,-1.1989,-1.1989,-1.1989,0,-1.1951,-1.1954,-1.1946,-1.1954,-1.1954,-1.1951,-1.1953,-1.1953,-1.1958,-1.1962,-1.1964,-1.1973,-1.197,-1.1981,-1.1977,-1.1983,-1.1983,-1.1986,-1.1986,-1.1984,-1.1996,-1.1976,-1.1948,-1.1945,-1.1985,-1.1986,-1.1986,0,-1.1928,-1.1929,-1.1925,-1.1927,-1.1936,-1.1934,-1.1937,-1.1943,-1.1943,-1.1946,-1.1946,-1.1948,-1.1949,-1.195,-1.1959,-1.1966,-1.1953,-1.1965,-1.1956,-1.1955,-1.1951,-1.1951,-1.1921,-1.1953,-1.1954,-1.1954,-1.1954,0,-1.1905,-1.19,-1.1914,-1.1911,-1.1906,-1.1917,-1.1911,-1.1916,-1.1921,-1.1919,-1.1931,-1.1929,-1.1941,-1.194,-1.1947,-1.1942,-1.1943,-1.1945,-1.1947,-1.1943,-1.1943,-1.1942,-1.1943,-1.1953,-1.1953,-1.1953,-1.1953,0,-1.1877,-1.1887,-1.1883,-1.1892,-1.1895,-1.189,-1.1898,-1.1895,-1.1902,-1.1899,-1.1899,-1.1909,-1.1909,-1.1918,-1.192,-1.1925,-1.1916,-1.192,-1.1914,-1.1915,-1.1904,-1.1904,-1.1872,-1.1867,-1.1904,-1.1904,-1.1904,0,-1.1862,-1.1858,-1.1867,-1.1867,-1.187,-1.1869,-1.187,-1.1882,-1.1882,-1.1887,-1.1884,-1.1885,-1.1885,-1.1884,-1.1891,-1.1893,-1.1896,-1.1885,-1.1896,-1.1893,-1.1894,-1.1894,-1.1893,-1.1882,-1.1881,-1.1881,-1.1881,0,-1.1832,-1.1838,-1.1838,-1.1841,-1.1841,-1.1844,-1.1847,-1.1846,-1.1858,-1.1858,-1.1858,-1.1859,-1.186,-1.186,-1.1863,-1.1867,-1.1875,-1.1877,-1.1875,-1.187,-1.1866,-1.1867,-1.1905,-1.1878,-1.1878,-1.1878,-1.1878,-1.1878,-1.1809,-1.1806,-1.1812,-1.1812,-1.1816,-1.1819,-1.1816,-1.1823,-1.1823,-1.1825,-1.1833,-1.1831,-1.1836,-1.1841,-1.1844,-1.1842,-1.1848,-1.1845,-1.1844,-1.1842,-1.184,-1.1868,-1.1843,-1.1843,-1.1843,-1.1843,-1.1843,0,-1.1779,-1.1784,-1.1784,-1.1788,-1.1788,-1.1798,-1.1802,-1.1801,-1.1799,-1.1804,-1.1805,-1.1804,-1.1805,-1.1812,-1.1814,-1.1811,-1.1815,-1.1811,-1.181,-1.181,-1.1835,-1.1836,-1.1807,-1.1807,-1.1807,-1.1807,-1.1807,-1.1807,-1.1763,-1.1758,-1.1764,-1.1761,-1.1766,-1.1764,-1.1765,-1.1768,-1.1771,-1.177,-1.1771,-1.1776,-1.1782,-1.1783,-1.1784,-1.1786,-1.1785,-1.178,-1.1783,-1.1805,-1.1809,-1.1812,-1.1813,-1.178,-1.178,-1.1758,-1.1758,-1.1758]},{"header":{"parameterUnit":"m.s-1","parameterCategory":1,"la1":30.2991,"la2":30.254,"lo1":-89.0895,"lo2":-89.0444,"dy":0.0017,"dx":0.0017,"nx":28,"ny":28,"refTime":"2025-03-23T09:00:00:Z","depth":0,"parameterNumber":3,"parameterNumberName":"V-component_of_WINDS"},"data":[0,0,0,0,0,0,0,0,0,0,0,0,0,0,0,0,0,0,0,0,0,0,0,0,0,0,0,0,0,0,0,0,0,0,0,0,0,0,0,0,0,0,0,0,0,0,0,0,0,0,0,0,0,0,0,0,0,0,1.0033,1.0034,0,1.0123,1.0124,1.0126,1.0152,1.0152,1.0151,1.0151,1.0244,1.0247,1.025,0,0,0,0,0,0,0,0,0,0,0,0,0,0.9884,0.9886,1.0033,1.0034,1.0035,1.0123,1.0125,1.0126,1.0152,1.0152,1.0151,1.015,1.0243,1.0246,1.025,0,0,0,0,0,0,0,0,0,0,0,0,0,0.9959,0.9887,1.0032,1.0059,1.0062,1.0123,1.0125,1.0126,1.0152,1.0151,1.0151,1.015,1.0242,1.0246,1.025,1.0292,0,0,1.0264,1.0266,0,0,0,0,0,0,0,0,0.9954,0.9964,1.0054,1.0057,1.0061,1.0126,1.0106,1.0182,1.0152,1.0118,1.0151,1.015,1.0205,1.0212,1.0231,1.0296,1.03,1.0264,1.0267,1.0269,1.027,0,0,0,0,0,0,0,0.9949,0.996,1.0069,1.0055,1.0059,1.0066,1.0076,1.0121,1.0164,1.0121,1.0123,1.0133,1.0207,1.0227,1.0233,1.0302,1.0264,1.0268,1.0271,1.0272,1.0407,1.0408,0,0,0,0,0,0,0.9939,0.9956,1.0066,1.0071,1.0005,1.007,1.0081,1.0106,1.0164,1.0172,1.0134,1.0134,1.022,1.0228,1.0237,1.029,1.0269,1.0273,1.0275,1.0406,1.0407,1.0408,0,0,0,0,0,0,0.9936,0.9949,1.0062,1.0014,1.0029,1.0073,1.0101,1.0108,1.0128,1.0174,1.0182,1.0146,1.0219,1.0231,1.0278,1.0294,1.0275,1.0279,1.0405,1.0406,1.0408,1.0397,0,0,0,0,0,0,0.9932,0.9947,0.9963,1.0014,1.0032,1.0102,1.0102,1.011,1.0135,1.0136,1.0187,1.0195,1.022,1.0272,1.0283,1.03,1.0282,1.0404,1.0406,1.0407,1.0396,1.0398,1.0399,0,0,0,0,0,0.9926,0.9956,0.9964,0.9977,1.0052,1.0102,1.0112,1.014,1.0136,1.0153,1.0183,1.0194,1.029,1.0276,1.0289,1.0307,1.0403,1.0405,1.0407,1.0395,1.0397,1.0399,0,0,0,0,0,0,0.9906,0.9963,0.9973,1.002,1.0056,1.0107,1.0128,1.0141,1.0179,1.0178,1.0211,1.0222,1.0268,1.0292,1.0276,1.0352,1.0347,1.0352,1.0334,1.0336,1.0338,1.0331,1.0286,0,0,0,0,0,0.9907,0.9942,0.9991,1.0028,1.0046,1.0084,1.0107,1.0125,1.0164,1.0179,1.0213,1.025,1.0289,1.0314,1.0352,1.04,1.0412,1.0419,1.042,1.0421,1.0425,1.0454,1.0458,1.0415,1.0415,1.0415,0,0,0.9909,0.9945,0.9966,1.0025,1.0055,1.0092,1.0097,1.0135,1.0163,1.0185,1.0232,1.0258,1.0302,1.035,1.0373,1.0372,1.044,1.0424,1.0425,1.0428,1.0456,1.046,1.0464,1.0417,1.0416,1.0416,0,0,0.9933,0.9963,0.9998,1.0028,1.0074,1.0099,1.0108,1.0157,1.0175,1.0223,1.0241,1.0275,1.0341,1.0372,1.0396,1.0433,1.0444,1.0444,1.0452,1.048,1.0483,1.0486,1.05,1.0504,1.0448,1.0448,1.0448,0,0.993,0.9986,1.0015,1.0052,1.0079,1.0101,1.0137,1.0165,1.0221,1.0238,1.0237,1.0321,1.0352,1.0408,1.0417,1.0436,1.0447,1.0439,1.048,1.0484,1.0487,1.0501,1.0506,1.0448,1.0448,1.0448,1.0448,0,0.9981,1.0019,1.0042,1.0096,1.0124,1.0161,1.0196,1.0222,1.0238,1.0263,1.0313,1.0351,1.0398,1.0413,1.0428,1.0472,1.047,1.0474,1.047,1.049,1.0504,1.0509,1.0447,1.0447,1.0447,1.0447,0,0,0.9993,1.0063,1.0071,1.0096,1.0149,1.0179,1.0218,1.0264,1.0286,1.0324,1.0357,1.0413,1.0417,1.0445,1.0465,1.0488,1.0516,1.049,1.0491,1.0494,1.0567,1.0564,1.057,1.0524,1.0525,1.0526,1.0564,0,1.0024,1.0093,1.012,1.0176,1.0213,1.0235,1.0269,1.0305,1.033,1.0365,1.0393,1.0433,1.0435,1.0452,1.0477,1.0507,1.0531,1.0505,1.0556,1.0558,1.0545,1.0577,1.0574,1.0607,1.0569,1.057,1.0571,0,1.0068,1.0107,1.0167,1.0216,1.0233,1.0262,1.0307,1.034,1.0382,1.0399,1.0431,1.0449,1.0491,1.0485,1.0543,1.0525,1.0547,1.0566,1.0568,1.0574,1.0566,1.0584,1.0618,1.0624,1.0579,1.0578,1.0578,0,1.0073,1.014,1.0185,1.0205,1.0263,1.0284,1.0309,1.035,1.0377,1.0417,1.0434,1.0478,1.0502,1.0536,1.0566,1.0559,1.0622,1.0618,1.0638,1.0637,1.0651,1.0649,1.0689,1.0664,1.0664,1.0664,1.0664,0,1.0104,1.014,1.0187,1.0215,1.0256,1.0288,1.0328,1.0355,1.0392,1.0425,1.0447,1.0478,1.0516,1.0553,1.0577,1.0622,1.0633,1.0648,1.0654,1.0646,1.0644,1.0662,1.066,1.0666,1.0665,1.0665,1.0665,0,1.0115,1.0148,1.0199,1.025,1.0264,1.0292,1.0337,1.0365,1.0391,1.0434,1.0446,1.0488,1.0532,1.0565,1.0622,1.0639,1.0687,1.0693,1.0673,1.0676,1.0694,1.0692,1.0747,1.0756,1.0724,1.0725,1.0725,0,1.0133,1.0162,1.0216,1.024,1.0266,1.0304,1.0331,1.0364,1.0392,1.0442,1.0464,1.051,1.0548,1.0618,1.0654,1.0698,1.0706,1.0722,1.0712,1.0704,1.0707,1.0705,1.0708,1.0723,1.0723,1.0723,1.0723,0,1.0162,1.0178,1.0216,1.026,1.0292,1.0329,1.0366,1.0384,1.0424,1.0454,1.0499,1.0529,1.0588,1.0633,1.0681,1.0708,1.0723,1.0726,1.0733,1.0726,1.0713,1.0721,1.0677,1.0725,1.0725,1.0725,1.0725,1.0724,1.0178,1.0205,1.0248,1.029,1.0321,1.0356,1.0385,1.0415,1.0454,1.0504,1.0521,1.0568,1.0611,1.0677,1.0704,1.0742,1.0742,1.0752,1.0755,1.0757,1.0757,1.0707,1.0751,1.0751,1.0751,1.0751,1.0751,0,1.0209,1.0238,1.0276,1.0328,1.0361,1.0372,1.0414,1.0441,1.0482,1.0521,1.0558,1.0611,1.0655,1.0695,1.0741,1.0764,1.0772,1.0775,1.0774,1.078,1.0753,1.0743,1.0768,1.0768,1.0768,1.0768,1.0768,1.0768,1.0229,1.0275,1.0295,1.0357,1.0386,1.0432,1.0455,1.0487,1.0518,1.0576,1.0613,1.0639,1.0678,1.0728,1.0769,1.078,1.0796,1.0798,1.081,1.0784,1.0782,1.078,1.077,1.0801,1.0801,1.0834,1.0835,1.0835]}]]